TimeMDT,TemperatureF,Dew PointF,Humidity,Sea Level PressureIn,VisibilityMPH,Wind Direction,Wind SpeedMPH,Gust SpeedMPH,PrecipitationIn,Events,Conditions,WindDirDegrees,DateUTC
12:15 AM,65.3,62.6,91,30.11,7.0,Calm,Calm,-,N/A,,Clear,0,2013-07-30 06:15:00
12:35 AM,64.8,62.2,92,30.11,7.0,SW,4.6,-,N/A,,Clear,220,2013-07-30 06:35:00
12:55 AM,64.8,62.2,92,30.11,7.0,SW,3.5,-,N/A,,Clear,230,2013-07-30 06:55:00
1:15 AM,64.0,61.7,92,30.12,5.0,WSW,3.5,-,N/A,,Scattered Clouds,240,2013-07-30 07:15:00
1:35 AM,63.9,61.7,93,30.12,5.0,Calm,Calm,-,N/A,,Mostly Cloudy,0,2013-07-30 07:35:00
1:55 AM,63.9,61.9,93,30.13,5.0,West,3.5,-,N/A,,Overcast,260,2013-07-30 07:55:00
2:15 AM,64.0,62.1,93,30.13,5.0,Calm,Calm,-,N/A,,Overcast,0,2013-07-30 08:15:00
2:35 AM,63.9,61.9,93,30.14,4.0,SSW,4.6,-,N/A,,Overcast,210,2013-07-30 08:35:00
2:55 AM,63.9,62.2,94,30.14,2.5,Calm,Calm,-,N/A,,Overcast,0,2013-07-30 08:55:00
3:15 AM,63.9,62.2,94,30.14,2.0,Calm,Calm,-,N/A,,Overcast,0,2013-07-30 09:15:00
3:35 AM,64.0,62.6,95,30.14,2.0,Calm,Calm,-,N/A,,Overcast,0,2013-07-30 09:35:00
3:55 AM,64.2,62.6,94,30.14,2.5,SW,6.9,-,N/A,,Overcast,230,2013-07-30 09:55:00
4:15 AM,64.0,62.6,95,30.14,0.8,WSW,4.6,-,N/A,,Overcast,240,2013-07-30 10:15:00
4:35 AM,64.4,62.8,94,30.14,1.0,West,5.8,-,N/A,,Overcast,260,2013-07-30 10:35:00
4:55 AM,64.4,63.0,95,30.15,1.0,West,4.6,-,N/A,,Overcast,260,2013-07-30 10:55:00
5:15 AM,64.4,63.0,95,30.14,1.0,WSW,4.6,-,N/A,,Overcast,250,2013-07-30 11:15:00
5:35 AM,64.4,63.0,95,30.14,0.8,WSW,4.6,-,N/A,,Overcast,240,2013-07-30 11:35:00
5:55 AM,64.4,63.0,95,30.15,0.8,West,5.8,-,N/A,,Overcast,270,2013-07-30 11:55:00
6:15 AM,64.4,63.1,96,30.14,0.8,West,3.5,-,N/A,,Overcast,260,2013-07-30 12:15:00
6:35 AM,64.8,63.5,96,30.14,1.0,West,6.9,-,N/A,,Overcast,260,2013-07-30 12:35:00
6:55 AM,64.8,63.5,96,30.15,1.8,WSW,9.2,-,N/A,,Overcast,240,2013-07-30 12:55:00
7:15 AM,64.8,63.3,95,30.15,1.5,West,4.6,-,N/A,,Overcast,280,2013-07-30 13:15:00
7:35 AM,64.9,63.5,95,30.15,1.8,WSW,4.6,-,N/A,,Overcast,250,2013-07-30 13:35:00
7:55 AM,65.7,63.9,94,30.15,3.0,WSW,4.6,-,N/A,,Overcast,250,2013-07-30 13:55:00
8:15 AM,66.4,63.9,92,30.15,4.0,West,5.8,-,N/A,,Overcast,260,2013-07-30 14:15:00
8:35 AM,66.6,63.7,90,30.16,2.5,West,4.6,-,N/A,,Overcast,260,2013-07-30 14:35:00
8:55 AM,68.5,64.6,87,30.16,5.0,WSW,4.6,-,N/A,,Mostly Cloudy,250,2013-07-30 14:55:00
9:15 AM,70.7,64.8,81,30.15,10.0,WSW,4.6,-,N/A,,Clear,250,2013-07-30 15:15:00
9:35 AM,73.2,65.5,77,30.15,10.0,Calm,Calm,-,N/A,,Clear,0,2013-07-30 15:35:00
9:55 AM,75.4,65.5,71,30.15,10.0,WSW,3.5,-,N/A,,Clear,250,2013-07-30 15:55:00
10:15 AM,77.5,64.2,63,30.15,10.0,WNW,3.5,-,N/A,,Clear,300,2013-07-30 16:15:00
10:55 AM,80.1,64.2,58,30.15,10.0,Calm,Calm,-,N/A,,Clear,0,2013-07-30 16:55:00
11:15 AM,81.5,64.8,57,30.15,10.0,South,4.6,-,N/A,,Clear,180,2013-07-30 17:15:00
11:35 AM,82.4,63.1,52,30.15,10.0,WSW,4.6,-,N/A,,Clear,250,2013-07-30 17:35:00
12:15 PM,83.7,62.4,49,30.14,10.0,SSW,4.6,-,N/A,,Clear,210,2013-07-30 18:15:00
12:35 PM,84.4,61.2,45,30.14,10.0,SW,5.8,-,N/A,,Clear,220,2013-07-30 18:35:00
12:55 PM,85.1,59.9,42,30.14,10.0,SSW,6.9,-,N/A,,Clear,210,2013-07-30 18:55:00
1:15 PM,86.2,60.4,42,30.14,10.0,Calm,Calm,-,N/A,,Clear,0,2013-07-30 19:15:00
1:35 PM,85.5,59.9,42,30.13,10.0,Calm,Calm,-,N/A,,Scattered Clouds,0,2013-07-30 19:35:00
1:55 PM,86.2,59.2,40,30.13,10.0,Calm,Calm,-,N/A,,Clear,0,2013-07-30 19:55:00
2:15 PM,86.9,60.3,41,30.13,10.0,Calm,Calm,-,N/A,,Scattered Clouds,0,2013-07-30 20:15:00
2:35 PM,87.4,58.3,37,30.12,10.0,South,4.6,-,N/A,,Clear,170,2013-07-30 20:35:00
2:55 PM,88.9,57.9,35,30.11,10.0,SE,6.9,-,N/A,,Scattered Clouds,140,2013-07-30 20:55:00
3:15 PM,88.7,58.5,36,30.11,10.0,SSE,10.4,-,N/A,,Scattered Clouds,160,2013-07-30 21:15:00
3:35 PM,88.9,59.0,36,30.10,10.0,South,4.6,10.4,N/A,,Clear,170,2013-07-30 21:35:00
3:55 PM,88.9,58.5,36,30.08,10.0,South,9.2,-,N/A,,Clear,180,2013-07-30 21:55:00
4:15 PM,88.9,60.6,39,30.08,10.0,South,11.5,17.3,N/A,,Scattered Clouds,170,2013-07-30 22:15:00
4:35 PM,88.7,59.2,37,30.08,10.0,South,13.8,-,N/A,,Clear,180,2013-07-30 22:35:00
4:55 PM,88.7,60.1,38,30.07,10.0,South,12.7,18.4,N/A,,Clear,180,2013-07-30 22:55:00
5:15 PM,87.8,60.6,40,30.07,10.0,South,11.5,17.3,N/A,,Clear,170,2013-07-30 23:15:00
5:35 PM,88.2,60.8,40,30.06,10.0,South,12.7,17.3,N/A,,Clear,190,2013-07-30 23:35:00
5:55 PM,87.8,58.5,37,30.06,10.0,South,11.5,-,N/A,,Clear,170,2013-07-30 23:55:00
6:15 PM,87.6,57.9,36,30.06,10.0,South,8.1,-,N/A,,Clear,190,2013-07-31 00:15:00
6:35 PM,86.5,58.5,38,30.06,10.0,South,8.1,-,N/A,,Clear,180,2013-07-31 00:35:00
6:55 PM,86.0,59.2,40,30.06,10.0,South,6.9,-,N/A,,Clear,180,2013-07-31 00:55:00
7:15 PM,84.9,59.7,42,30.06,10.0,South,4.6,-,N/A,,Clear,180,2013-07-31 01:15:00
7:35 PM,83.1,61.0,47,30.07,10.0,SSE,3.5,-,N/A,,Clear,160,2013-07-31 01:35:00
7:55 PM,81.5,61.7,51,30.08,10.0,ESE,3.5,-,N/A,,Clear,110,2013-07-31 01:55:00
8:15 PM,78.8,63.1,59,30.08,10.0,ESE,5.8,-,N/A,,Clear,120,2013-07-31 02:15:00
8:35 PM,77.2,63.7,63,30.09,10.0,ESE,6.9,-,N/A,,Clear,120,2013-07-31 02:35:00
8:55 PM,77.7,61.9,58,30.11,10.0,East,10.4,-,N/A,,Scattered Clouds,90,2013-07-31 02:55:00
9:15 PM,75.0,61.0,62,30.12,10.0,ESE,12.7,20.7,N/A,,Clear,110,2013-07-31 03:15:00
9:35 PM,72.7,60.8,66,30.12,10.0,East,9.2,-,N/A,,Clear,100,2013-07-31 03:35:00
9:55 PM,72.1,61.0,68,30.16,10.0,ENE,21.9,25.3,N/A,Thunderstorm,Thunderstorm,60,2013-07-31 03:55:00
10:15 PM,69.4,59.0,69,30.19,10.0,ENE,21.9,31.1,N/A,Thunderstorm,Thunderstorm,70,2013-07-31 04:15:00
10:35 PM,64.2,60.6,88,30.25,1.2,NNW,12.7,34.5,0.46,Rain-Thunderstorm,Heavy Thunderstorms and Rain,330,2013-07-31 04:35:00
10:55 PM,65.3,61.3,87,30.18,5.0,SE,16.1,25.3,0.91,Rain-Thunderstorm,Light Thunderstorms and Rain,140,2013-07-31 04:55:00
11:15 PM,66.4,61.0,83,30.20,10.0,Calm,Calm,-,N/A,Thunderstorm,Scattered Clouds,0,2013-07-31 05:15:00
11:35 PM,66.2,61.7,85,30.21,10.0,SE,5.8,-,N/A,Rain,Light Rain,130,2013-07-31 05:35:00
11:55 PM,65.7,61.9,88,30.20,10.0,ESE,6.9,-,N/A,Thunderstorm,Clear,120,2013-07-31 05:55:00